Location: Unspecified
(50.7693°N, 0.0000°E)
Time: 02:27:27
(UTC+00:00)

SR - Pass Details

Date: 02 July 2019
Orbit: 575 x 881 km, 66.7° (Epoch: 14 October)

Event Time Altitude Azimuth Distance (km) Brightness Sun altitude
Rises 06:50:25 0° 321° (NW) 2,923 ? 24.9°
Reaches altitude 10° 06:53:35 10° 345° (NNW) 2,070 ? 25.4°
Maximum altitude 06:56:19 15° 21° (NNE) 1,796 ? 25.8°
Drops below altitude 10° 06:59:10 10° 56° (ENE) 2,178 ? 26.2°
Sets 07:02:37 0° 80° (E) 3,170 ? 26.8°
